Lid_Strength_Index
-1 -0 0 3 11 11 14 13 8 9 9 6 5 7 8 7 9 12 1 0 -0 -0 -1 -1 -2 -2 -1 -2 -1 -2 -2 -2 -2 -1 -1 -2 -2 -2 -2 -2 -2 -1 -1 -1 -1 -1 -1 -1 -1
2 1 2 6 13 16 15 10 10 8 7 5 6 6 7 9 5 4 3 0 -0 -1 -1 -1 -2 -2 -1 -1 -2 -2 -2 -2 -2 -1 -1 -2 -1 -2 -1 -2 -2 -1 -1 -1 -1 -1 -1 -1 -1
0 1 6 10 13 15 14 9 8 7 5 6 7 5 6 7 4 3 1 -0 -0 -0 -0 -0 -2 -2 -1 -2 -2 -2 -2 -1 -1 -1 -2 -2 -2 -2 -1 -1 -1 -1 -1 -1 -1 -1 -1 -1 -1
2 4 6 11 14 11 10 8 7 7 6 5 6 8 5 2 3 1 0 -0 -0 -0 -0 -1 -2 -2 -2 -2 -2 -2 -2 -2 -1 -1 -1 -1 -1 -1 -1 -1 -1 -2 -2 -2 -2 -1 -1 -1 -1
2 6 12 13 12 9 7 6 6 8 7 7 6 9 7 3 1 1 0 0 0 0 0 -0 -2 -2 -2 -2 -2 -1 -1 -1 -1 -1 -1 -1 -1 -1 -1 -0 -0 -1 -1 -1 -1 -2 -2 -1 -1
7 7 13 15 12 8 7 6 6 7 7 7 7 7 7 2 2 1 0 0 -0 1 0 -0 -2 -2 -2 -1 -1 -1 -1 -1 -1 -1 -1 -1 -1 -1 -1 -1 -1 0 1 0 0 0 0 -1 -2
8 10 13 11 10 10 8 5 6 7 7 7 5 9 6 4 2 1 1 1 1 1 1 1 0 -0 -1 -1 -1 -1 -1 -1 -0 -0 -0 -0 -1 -0 0 -0 1 1 1 -0 -1 -1 -1 -0 -0
6 8 11 11 11 11 7 6 5 6 7 4 4 9 8 4 1 1 1 2 3 3 2 1 1 1 1 1 -1 -1 -0 -0 0 0 -0 0 -0 -1 -1 -1 0 1 1 0 -0 -1 -1 -1 -1
4 10 13 11 10 9 6 7 5 4 6 5 4 5 4 2 2 3 4 4 5 4 4 4 4 4 3 1 1 -0 -1 -0 -0 0 -1 0 3 3 1 0 -0 1 -0 -1 -2 -2 -2 -2 -2
7 11 11 7 7 8 7 6 6 7 7 7 6 4 2 2 3 5 5 5 5 4 4 4 4 4 4 3 4 2 1 2 3 3 4 3 4 2 1 -0 -3 -1 -2 -2 -3 -2 -2 -2 2
7 10 7 6 6 5 6 6 5 8 9 7 7 5 3 5 5 4 4 4 4 4 4 3 3 3 4 4 4 3 2 2 2 3 4 3 2 1 2 2 2 2 -1 1 0 1 1 2 2
9 7 7 6 5 6 7 6 7 7 7 5 4 4 5 5 5 5 5 4 4 4 3 4 3 4 3 3 3 3 3 2 3 3 3 3 3 2 3 2 2 2 2 2 2 2 1 1 1
8 7 6 5 5 6 5 7 7 7 5 4 4 4 6 6 5 4 4 4 4 3 5 3 2 3 3 3 2 2 4 3 3 2 3 3 3 3 3 2 2 2 2 2 2 2 1 2 1
7 6 7 6 6 6 7 7 7 6 5 5 5 5 5 5 5 5 4 5 4 3 4 2 2 2 2 2 2 2 3 3 2 3 3 3 3 3 4 3 3 2 3 2 2 2 2 2 2
7 8 7 8 7 7 6 9 9 6 5 6 5 5 4 5 5 5 4 4 4 4 3 1 2 1 2 2 2 2 3 3 3 2 2 3 3 4 3 4 3 1 1 2 2 1 0 2 1
9 9 12 8 7 7 7 13 8 6 6 7 6 5 5 5 4 4 3 4 3 3 2 1 -0 1 2 1 1 1 2 2 2 2 3 2 1 2 1 1 2 1 1 2 1 1 2 2 2
11 14 13 11 7 8 9 12 8 6 6 7 6 6 5 5 4 4 3 3 2 2 1 1 1 1 2 1 0 0 1 2 1 2 0 -0 0 1 2 2 2 1 1 2 1 2 2 2 2
13 13 12 13 9 8 10 11 8 7 7 7 7 6 6 5 4 3 3 2 2 1 1 1 1 2 2 1 1 1 1 2 1 1 1 1 2 1 1 0 2 1 0 2 1 2 2 2 2
8 11 13 11 8 9 10 11 9 8 7 7 7 6 6 5 4 3 3 2 2 2 2 1 2 3 2 1 1 1 4 3 2 1 1 1 1 0 1 1 1 1 1 2 1 2 3 2 2
9 10 10 9 8 9 10 11 10 8 8 7 7 7 6 5 4 4 3 2 2 2 2 1 2 2 1 1 0 0 1 1 1 1 1 1 0 1 0 2 1 2 2 2 2 2 3 3 2
10 10 10 10 9 8 11 13 11 9 8 7 6 5 5 5 5 4 4 3 2 2 2 2 2 1 1 1 0 0 0 2 2 3 2 1 0 0 1 1 1 1 1 2 2 2 3 4 3
11 7 8 9 11 14 9 18 13 11 10 7 6 6 6 5 4 4 4 4 3 2 2 2 2 1 2 1 1 2 2 4 2 2 2 1 0 0 0 1 1 1 1 1 2 1 2 3 4
9 7 8 9 10 12 14 16 14 11 12 9 7 6 5 5 5 4 4 3 3 2 2 2 3 3 1 1 2 2 2 3 2 2 2 2 1 0 0 1 1 1 1 1 2 2 2 3 3
6 9 9 9 11 16 15 15 17 14 11 8 6 6 5 5 4 4 3 3 3 2 2 2 3 2 1 2 1 2 2 2 3 3 3 2 2 1 1 1 1 1 1 1 1 1 2 2 3
8 12 16 16 16 18 13 16 15 11 9 8 7 7 6 5 5 4 5 4 4 3 3 3 3 2 2 2 2 2 1 1 2 2 2 2 3 3 2 1 1 1 1 1 1 1 2 2 3
10 12 15 19 18 16 13 18 15 9 7 6 6 6 5 5 5 5 5 4 4 3 3 3 3 3 2 2 2 1 2 1 1 1 1 2 2 2 1 1 1 1 -0 0 1 1 1 2 2
10 12 10 13 13 15 16 14 10 8 8 7 6 6 6 6 5 5 4 5 4 4 3 3 3 3 3 3 2 2 2 2 1 1 1 2 1 0 1 1 1 1 -0 1 1 2 2 2 2
8 8 13 13 19 19 17 17 16 12 10 7 7 7 7 6 7 8 7 6 4 4 4 3 3 3 3 2 2 2 2 1 2 1 1 2 2 1 1 1 1 1 0 1 2 2 1 2 2
11 12 11 12 13 18 19 18 10 10 8 8 8 7 7 6 8 7 6 5 4 4 4 3 3 4 3 3 3 2 2 1 1 2 1 2 2 1 1 1 1 1 1 1 1 2 1 1 1
9 10 11 15 16 14 15 17 8 8 7 8 7 7 7 6 7 6 5 5 5 5 4 4 4 4 4 4 4 3 2 1 2 1 2 2 2 1 1 1 1 1 1 1 1 2 1 1 2